Hourly Weather Chahino

Today, 12 June, Saturday

Time Temperature Precipitation Wind Pressure Humidity
00:00 +13°C° 0 mm 2 mps 734 mmHg 94%
01:00 +13°C° 0 mm 2 mps 734 mmHg 94%
02:00 +13°C° 0 mm 1 mps 734 mmHg 93%
03:00 +13°C° 0 mm 1 mps 734 mmHg 93%
04:00 +14°C° 0 mm 1 mps 734 mmHg 93%
05:00 +14°C° 0 mm 1 mps 734 mmHg 93%
06:00 +16°C° 0 mm 1 mps 734 mmHg 88%
07:00 +17°C° 0 mm 2 mps 734 mmHg 84%
08:00 +17°C° 0 mm 2 mps 735 mmHg 82%
09:00 +19°C° 0 mm 1 mps 734 mmHg 78%
10:00 +20°C° 0 mm 1 mps 734 mmHg 73%
11:00 +21°C° 0 mm 1 mps 734 mmHg 69%
12:00 +21°C° 0 mm 1 mps 734 mmHg 68%
13:00 +22°C° 0 mm 1 mps 734 mmHg 66%
14:00 +22°C° 0 mm 1 mps 733 mmHg 65%
15:00 +22°C° 0.2 mm 1 mps 733 mmHg 68%
16:00 +21°C° 0.2 mm 1 mps 733 mmHg 72%
17:00 +21°C° 0.2 mm 1 mps 733 mmHg 76%
18:00 +20°C° 0.1 mm 1 mps 733 mmHg 78%
19:00 +19°C° 0.1 mm 1 mps 733 mmHg 80%
20:00 +18°C° 0.1 mm 1 mps 732 mmHg 82%
21:00 +16°C° 0 mm 1 mps 732 mmHg 84%
22:00 +15°C° 0 mm 1 mps 732 mmHg 86%
23:00 +15°C° 0 mm 1 mps 732 mmHg 89%

Tomorrow, 13 June, Sunday

Time Temperature Precipitation Wind Pressure Humidity
00:00 +14°C° 0 mm 1 mps 732 mmHg 90%
01:00 +14°C° 0 mm 1 mps 732 mmHg 91%
02:00 +14°C° 0 mm 1 mps 732 mmHg 92%
03:00 +14°C° 0 mm 1 mps 732 mmHg 93%
04:00 +14°C° 0 mm 1 mps 732 mmHg 93%
05:00 +15°C° 0 mm 1 mps 732 mmHg 93%
06:00 +16°C° 0 mm 2 mps 732 mmHg 89%
07:00 +18°C° 0 mm 2 mps 732 mmHg 84%
08:00 +19°C° 0 mm 2 mps 732 mmHg 80%
09:00 +20°C° 0 mm 3 mps 732 mmHg 75%
10:00 +21°C° 0 mm 3 mps 732 mmHg 70%
11:00 +22°C° 0 mm 4 mps 732 mmHg 66%
12:00 +22°C° 0.2 mm 4 mps 732 mmHg 67%
13:00 +22°C° 0.2 mm 5 mps 732 mmHg 68%
14:00 +22°C° 0.2 mm 5 mps 732 mmHg 69%
15:00 +22°C° 0.5 mm 5 mps 732 mmHg 74%
16:00 +21°C° 0.5 mm 4 mps 732 mmHg 78%
17:00 +21°C° 0.5 mm 4 mps 732 mmHg 83%
18:00 +20°C° 0.8 mm 4 mps 732 mmHg 86%
19:00 +18°C° 0.8 mm 3 mps 732 mmHg 90%
20:00 +17°C° 0.8 mm 3 mps 733 mmHg 93%
21:00 +17°C° 0.3 mm 3 mps 733 mmHg 93%
22:00 +16°C° 0.3 mm 3 mps 733 mmHg 93%
23:00 +16°C° 0.3 mm 3 mps 733 mmHg 93%

Day after tomorrow, 14 June, Monday

Time Temperature Precipitation Wind Pressure Humidity
00:00 +15°C° 0 mm 2 mps 733 mmHg 94%
01:00 +15°C° 0 mm 2 mps 734 mmHg 94%
02:00 +14°C° 0 mm 2 mps 734 mmHg 95%
03:00 +15°C° 0 mm 2 mps 734 mmHg 95%
04:00 +15°C° 0 mm 2 mps 735 mmHg 95%
05:00 +15°C° 0 mm 1 mps 735 mmHg 94%
06:00 +16°C° 0 mm 2 mps 735 mmHg 91%
07:00 +17°C° 0 mm 2 mps 736 mmHg 88%
08:00 +18°C° 0 mm 2 mps 736 mmHg 85%
09:00 +20°C° 0 mm 2 mps 737 mmHg 81%
10:00 +21°C° 0 mm 2 mps 737 mmHg 76%
11:00 +23°C° 0 mm 2 mps 737 mmHg 72%
12:00 +23°C° 0.4 mm 2 mps 737 mmHg 70%
13:00 +24°C° 0.4 mm 1 mps 737 mmHg 69%
14:00 +24°C° 0.4 mm 1 mps 737 mmHg 67%
15:00 +24°C° 0.9 mm 1 mps 737 mmHg 69%
16:00 +24°C° 0.9 mm 1 mps 737 mmHg 71%
17:00 +24°C° 0.9 mm 1 mps 737 mmHg 73%
18:00 +22°C° 0.4 mm 1 mps 737 mmHg 77%
19:00 +21°C° 0.4 mm 1 mps 737 mmHg 81%
20:00 +20°C° 0.4 mm 1 mps 737 mmHg 84%
21:00 +19°C° 0 mm 1 mps 737 mmHg 86%
22:00 +19°C° 0 mm 1 mps 738 mmHg 87%
23:00 +18°C° 0 mm 1 mps 738 mmHg 89%

15 June, Tuesday

Time Temperature Precipitation Wind Pressure Humidity
00:00 +18°C° 0 mm 1 mps 738 mmHg 90%
01:00 +16°C° 0 mm 1 mps 738 mmHg 91%
02:00 +16°C° 0 mm 1 mps 738 mmHg 91%
03:00 +16°C° 0 mm 1 mps 738 mmHg 92%
04:00 +16°C° 0 mm 1 mps 738 mmHg 92%
05:00 +17°C° 0 mm 2 mps 738 mmHg 93%
06:00 +18°C° 0 mm 2 mps 738 mmHg 89%
07:00 +19°C° 0 mm 2 mps 738 mmHg 86%
08:00 +21°C° 0 mm 2 mps 738 mmHg 82%
09:00 +21°C° 0.3 mm 2 mps 738 mmHg 79%
10:00 +22°C° 0.3 mm 3 mps 738 mmHg 77%
11:00 +24°C° 0.3 mm 3 mps 738 mmHg 74%
12:00 +24°C° 0.3 mm 3 mps 737 mmHg 72%
13:00 +24°C° 0.3 mm 3 mps 737 mmHg 71%
14:00 +25°C° 0.3 mm 3 mps 737 mmHg 69%
15:00 +24°C° 0.5 mm 3 mps 737 mmHg 72%
16:00 +24°C° 0.5 mm 2 mps 736 mmHg 76%
17:00 +24°C° 0.5 mm 2 mps 736 mmHg 79%
18:00 +21°C° 0.2 mm 2 mps 736 mmHg 82%
19:00 +20°C° 0.2 mm 2 mps 736 mmHg 85%
20:00 +18°C° 0.2 mm 3 mps 736 mmHg 89%
21:00 +18°C° 0 mm 3 mps 736 mmHg 90%
22:00 +17°C° 0 mm 3 mps 736 mmHg 91%
23:00 +16°C° 0 mm 3 mps 736 mmHg 92%

16 June, Wednesday

Time Temperature Precipitation Wind Pressure Humidity
00:00 +16°C° 0 mm 3 mps 736 mmHg 93%
01:00 +14°C° 0 mm 3 mps 736 mmHg 93%
02:00 +14°C° 0 mm 3 mps 736 mmHg 94%
03:00 +14°C° 0 mm 3 mps 736 mmHg 93%
04:00 +14°C° 0 mm 3 mps 736 mmHg 93%
05:00 +16°C° 0 mm 3 mps 736 mmHg 92%
06:00 +17°C° 0 mm 3 mps 736 mmHg 87%
07:00 +18°C° 0 mm 4 mps 736 mmHg 82%
08:00 +20°C° 0 mm 4 mps 737 mmHg 78%
09:00 +21°C° 0 mm 4 mps 737 mmHg 73%
10:00 +22°C° 0 mm 4 mps 737 mmHg 69%
11:00 +23°C° 0 mm 5 mps 737 mmHg 65%
12:00 +23°C° 0 mm 5 mps 737 mmHg 64%
13:00 +23°C° 0 mm 5 mps 737 mmHg 63%
14:00 +23°C° 0 mm 5 mps 737 mmHg 62%
15:00 +23°C° 0 mm 5 mps 737 mmHg 65%
16:00 +23°C° 0 mm 4 mps 737 mmHg 68%
17:00 +22°C° 0 mm 4 mps 737 mmHg 72%
18:00 +21°C° 0 mm 4 mps 737 mmHg 77%
19:00 +19°C° 0 mm 4 mps 738 mmHg 82%
20:00 +18°C° 0 mm 4 mps 738 mmHg 87%
21:00 +17°C° 0 mm 4 mps 739 mmHg 89%
22:00 +16°C° 0 mm 3 mps 739 mmHg 90%
23:00 +16°C° 0 mm 3 mps 739 mmHg 91%

17 June, Thursday

Time Temperature Precipitation Wind Pressure Humidity
00:00 +14°C° 0 mm 3 mps 740 mmHg 90%
01:00 +13°C° 0 mm 3 mps 740 mmHg 89%
02:00 +13°C° 0 mm 3 mps 740 mmHg 88%
03:00 +13°C° 0 mm 4 mps 741 mmHg 87%
04:00 +13°C° 0 mm 4 mps 741 mmHg 86%
05:00 +13°C° 0 mm 4 mps 742 mmHg 85%
06:00 +14°C° 0 mm 4 mps 742 mmHg 79%
07:00 +16°C° 0 mm 5 mps 742 mmHg 73%
08:00 +17°C° 0 mm 5 mps 743 mmHg 68%
09:00 +19°C° 0 mm 5 mps 743 mmHg 64%
10:00 +19°C° 0 mm 5 mps 743 mmHg 61%
11:00 +20°C° 0 mm 6 mps 744 mmHg 57%
12:00 +20°C° 0 mm 5 mps 744 mmHg 56%
13:00 +20°C° 0 mm 5 mps 744 mmHg 55%
14:00 +21°C° 0 mm 5 mps 744 mmHg 54%
15:00 +20°C° 0 mm 5 mps 744 mmHg 59%
16:00 +20°C° 0 mm 4 mps 744 mmHg 63%
17:00 +20°C° 0 mm 4 mps 744 mmHg 67%
18:00 +18°C° 0 mm 3 mps 744 mmHg 72%
19:00 +17°C° 0 mm 3 mps 745 mmHg 77%
20:00 +14°C° 0 mm 3 mps 745 mmHg 82%
21:00 +15°C° 0 mm 2 mps 745 mmHg 81%
22:00 +14°C° 0 mm 2 mps 745 mmHg 81%
23:00 +13°C° 0 mm 2 mps 745 mmHg 80%
Show more

We Need Your Consent

Meteoprog and our Service Providers may store and access personal data such as cookies, device identifiers or other similar technologies on your device and process such data to personalise content and ads, as well as provide social media features and to analyse the traffic.

  • Store and/or access information on your device

    Cookies, device identifiers or other information can be stored or accessed on your device for the purposes indicated above.

  • Personalised ads and content, ad and content measurement, audience insights, and products development

    Ads and content can be personalised based on a profile. More data can be added to better personalise ads and content. Ad and content performance can be measured. Insights about the audience who saw the ads and content can be derived. Such data can be used to develop or improve user’s experience, systems and software.

By clicking ‘I Agree’ you will allow the use of indicated cookies, device identifiers, web beacons or other similar technologies. Your settings can be changed in the browser on your device.

For certain purposes, legitimate interests may be relied on, rather than consent. You can read more about this in our Privacy and Cookie Policy.